AB4KN Weather Reports


Display with metric or nautical units.
time (UTC)temp
F
wind
direction
speed
MPH
gust
MPH
rain 1hr
in
rain 24hr
in
rain mn
in
humidity
%
barometer
mb
20260506175601 78 246 3.0 3.0 0.00 0.00 0.00 64 1020.1
20260506175057 78 273 4.0 7.0 0.00 0.00 0.00 64 1019.9
20260506174556 79 263 4.0 7.0 0.00 0.00 0.00 65 1020.2
20260506174051 80 233 5.0 9.0 0.00 0.00 0.00 63 1019.9
20260506173550 80 193 2.0 3.0 0.00 0.00 0.00 62 1019.8
20260506173046 78 193 3.0 3.0 0.00 0.00 0.00 64 1019.9
20260506172544 78 263 8.0 10.0 0.00 0.00 0.00 66 1019.8
20260506172040 77 197 5.0 9.0 0.00 0.00 0.00 66 1019.9
20260506171537 77 238 5.0 7.0 0.00 0.00 0.00 68 1020.1
20260506171035 77 246 4.0 5.0 0.00 0.00 0.00 68 1020.2
20260506170532 77 215 5.0 7.0 0.00 0.00 0.00 67 1020.4
20260506170030 77 221 3.0 3.0 0.00 0.00 0.00 68 1020.2
20260506165528 77 294 0.0 0.0 0.00 0.00 0.00 68 1020.4
20260506165024 76 171 5.0 7.0 0.00 0.00 0.00 67 1020.7
20260506164521 76 193 3.0 5.0 0.00 0.00 0.00 68 1020.7
20260506164018 76 234 4.0 5.0 0.00 0.00 0.00 68 1020.6
20260506163514 76 253 5.0 5.0 0.00 0.00 0.00 67 1020.7
20260506163010 76 250 2.0 3.0 0.00 0.00 0.00 67 1020.8
20260506162506 76 262 3.0 5.0 0.00 0.00 0.00 67 1020.8
20260506162004 77 223 2.0 3.0 0.00 0.00 0.00 66 1020.8
20260506161501 76 243 3.0 5.0 0.00 0.00 0.00 67 1021.2
20260506160958 76 263 3.0 5.0 0.00 0.00 0.00 68 1021.1
20260506160455 75 233 4.0 5.0 0.00 0.00 0.00 68 1020.8
20260506155952 75 267 2.0 2.0 0.00 0.00 0.00 68 1021.5
20260506155451 75 241 4.0 5.0 0.00 0.00 0.00 69 1021.4
20260506153623 73 243 3.0 3.0 0.00 0.00 0.00 73 1021.8
20260506153120 73 190 5.0 7.0 0.00 0.00 0.00 74 1021.8
20260506152617 73 256 4.0 5.0 0.00 0.00 0.00 74 1021.5
20260506152115 72 240 2.0 3.0 0.00 0.00 0.00 74 1021.5
20260506151613 71 265 4.0 7.0 0.00 0.00 0.00 75 1021.6
20260506151109 72 243 0.0 2.0 0.00 0.00 0.00 75 1021.7
20260506150606 72 237 0.0 0.0 0.00 0.00 0.00 75 1021.4
20260506145600 71 253 2.0 3.0 0.00 0.00 0.00 75 1021.4
20260506145057 71 236 3.0 5.0 0.00 0.00 0.00 76 1021.5
20260506144554 71 233 0.0 0.0 0.00 0.00 0.00 75 1021.4
20260506144051 71 257 1.0 2.0 0.00 0.00 0.00 75 1021.6
20260506143549 71 241 6.0 7.0 0.00 0.00 0.00 75 1021.2
20260506143047 71 157 6.0 7.0 0.00 0.00 0.00 75 1021.4
20260506142544 70 34 4.0 5.0 0.00 0.00 0.00 76 1021.0
20260506142042 70 102 3.0 3.0 0.00 0.00 0.00 77 1021.3
20260506141540 70 266 2.0 2.0 0.00 0.00 0.00 77 1021.0
20260506141038 71 250 1.0 3.0 0.00 0.00 0.00 77 1021.1
20260506140535 70 215 0.0 0.0 0.00 0.00 0.00 78 1020.8
20260506140032 70 160 9.0 12.0 0.00 0.00 0.00 77 1021.0
20260506135529 70 246 3.0 3.0 0.00 0.00 0.00 79 1020.6
20260506135025 69 238 0.0 0.0 0.00 0.00 0.00 80 1020.7
20260506134522 69 227 0.0 0.0 0.00 0.00 0.00 81 1020.7
20260506134018 68 216 0.0 0.0 0.00 0.00 0.00 81 1020.4
20260506133515 68 199 2.0 5.0 0.00 0.00 0.00 82 1020.2
20260506133012 68 243 0.0 0.0 0.00 0.00 0.00 82 1020.4
20260506132509 68 257 0.0 0.0 0.00 0.00 0.00 83 1020.3
20260506132006 68 285 0.0 0.0 0.00 0.00 0.00 83 1020.5
20260506131503 68 208 0.0 0.0 0.00 0.00 0.00 83 1020.5
20260506131000 68 200 0.0 0.0 0.00 0.00 0.00 83 1020.4
20260506130456 67 275 0.0 0.0 0.00 0.00 0.00 83 1020.4
20260506125954 67 203 0.0 0.0 0.00 0.00 0.00 84 1019.9
20260506125452 67 98 0.0 0.0 0.00 0.00 0.00 84 1020.3
20260506124950 66 223 0.0 0.0 0.00 0.00 0.00 84 1020.7
20260506124447 66 239 0.0 0.0 0.00 0.00 0.00 85 1020.5
20260506123945 66 197 3.0 5.0 0.00 0.00 0.00 85 1020.5
20260506123443 66 248 0.0 0.0 0.00 0.00 0.00 85 1020.3
20260506122940 66 258 0.0 0.0 0.00 0.00 0.00 85 1020.3
20260506122437 66 259 0.0 0.0 0.00 0.00 0.00 85 1020.2
20260506121935 66 247 0.0 0.0 0.00 0.00 0.00 85 1020.4
20260506121432 65 236 0.0 0.0 0.00 0.00 0.00 85 1020.1
20260506120929 65 257 0.0 0.0 0.00 0.00 0.00 85 1020.2
20260506120426 65 258 0.0 0.0 0.00 0.00 0.00 85 1020.0
20260506115924 65 257 0.0 0.0 0.00 0.00 0.00 85 1019.8
20260506115421 65 257 0.0 0.0 0.00 0.00 0.00 85 1020.1
20260506114920 65 257 0.0 0.0 0.00 0.00 0.00 85 1019.8
20260506114417 64 251 0.0 0.0 0.00 0.00 0.00 85 1019.9
20260506113916 64 208 0.0 0.0 0.00 0.00 0.00 85 1019.7
20260506113413 64 256 0.0 0.0 0.00 0.00 0.00 85 1019.7
20260506112909 64 253 0.0 0.0 0.00 0.00 0.00 84 1019.7
20260506112407 64 256 0.0 0.0 0.00 0.00 0.00 84 1019.8
20260506111904 64 257 0.0 0.0 0.00 0.00 0.00 84 1019.9
20260506111402 64 175 0.0 0.0 0.00 0.00 0.00 84 1019.8
20260506110859 64 255 0.0 0.0 0.00 0.00 0.00 84 1019.8
20260506110356 64 207 0.0 0.0 0.00 0.00 0.00 84 1019.6
20260506105853 64 255 0.0 0.0 0.00 0.00 0.00 84 1019.8
20260506105349 64 208 0.0 0.0 0.00 0.00 0.00 84 1019.6
20260506104847 64 264 0.0 0.0 0.00 0.00 0.00 84 1019.3
20260506104344 64 160 2.0 2.0 0.00 0.00 0.00 84 1019.1
20260506103842 64 237 3.0 5.0 0.00 0.00 0.00 84 1019.5
20260506103339 64 249 0.0 0.0 0.00 0.00 0.00 83 1019.0
20260506102836 64 255 0.0 0.0 0.00 0.00 0.00 83 1019.1
20260506102334 63 262 0.0 0.0 0.00 0.00 0.00 83 1019.1
20260506101831 63 255 0.0 0.0 0.00 0.00 0.00 83 1018.8
20260506101327 63 255 0.0 0.0 0.00 0.00 0.00 82 1018.6
20260506100825 63 218 0.0 0.0 0.00 0.00 0.00 82 1018.5
20260506100324 63 257 0.0 0.0 0.00 0.00 0.00 82 1018.6
20260506095822 63 228 0.0 0.0 0.00 0.00 0.00 82 1018.5
20260506095318 63 245 0.0 0.0 0.00 0.00 0.00 81 1018.6
20260506094815 63 177 3.0 3.0 0.00 0.00 0.00 81 1018.7
20260506094314 63 263 0.0 0.0 0.00 0.00 0.00 81 1018.6
20260506093812 63 262 0.0 0.0 0.00 0.00 0.00 80 1018.7
20260506093308 63 188 0.0 0.0 0.00 0.00 0.00 80 1018.6
20260506092807 63 260 0.0 0.0 0.00 0.00 0.00 80 1018.5
20260506092306 63 267 0.0 0.0 0.00 0.00 0.00 80 1018.4
20260506091801 63 267 0.0 0.0 0.00 0.00 0.00 80 1018.2
20260506091258 63 267 0.0 0.0 0.00 0.00 0.00 79 1018.2
20260506090756 63 267 0.0 0.0 0.00 0.00 0.00 79 1018.2
20260506090253 63 267 0.0 0.0 0.00 0.00 0.00 79 1018.3
20260506085750 64 265 0.0 0.0 0.00 0.00 0.00 79 1018.5
20260506085246 64 137 0.0 0.0 0.00 0.00 0.00 78 1018.4
20260506084743 64 163 0.0 0.0 0.00 0.00 0.00 78 1018.5
20260506084239 64 250 0.0 0.0 0.00 0.00 0.00 78 1018.2
20260506083736 64 210 0.0 0.0 0.00 0.00 0.00 78 1018.3
20260506083234 64 268 0.0 0.0 0.00 0.00 0.00 77 1018.5
20260506082731 64 240 0.0 0.0 0.00 0.00 0.00 77 1018.3
20260506082226 64 258 0.0 0.0 0.00 0.00 0.00 76 1018.1
20260506081724 64 202 0.0 0.0 0.00 0.00 0.00 76 1018.3
20260506081221 64 212 0.0 0.0 0.00 0.00 0.00 75 1018.3
20260506080720 64 243 0.0 0.0 0.00 0.00 0.00 74 1018.4
20260506080216 64 243 0.0 0.0 0.00 0.00 0.00 74 1018.8
20260506073200 64 259 0.0 0.0 0.00 0.00 0.00 69 1018.5
20260506072656 64 259 0.0 0.0 0.00 0.00 0.00 69 1018.7
20260506072154 64 260 0.0 0.0 0.00 0.00 0.00 69 1018.8
20260506071652 64 242 0.0 0.0 0.00 0.00 0.00 68 1019.0
20260506071149 64 266 0.0 0.0 0.00 0.00 0.00 68 1019.4
20260506070646 64 266 0.0 0.0 0.00 0.00 0.00 68 1019.3
20260506070143 64 259 0.0 0.0 0.00 0.00 0.00 68 1019.0
20260506062115 64 266 0.0 0.0 0.00 0.00 0.00 63 1019.3
20260506061610 65 266 0.0 0.0 0.00 0.00 0.00 63 1019.6
20260506061109 64 266 0.0 0.0 0.00 0.00 0.00 62 1019.4
20260506060606 64 266 0.0 0.0 0.00 0.00 0.00 62 1019.3
20260506051035 66 268 0.0 0.0 0.00 0.00 0.00 58 1018.9
20260506050533 66 268 0.0 0.0 0.00 0.00 0.00 58 1018.6
20260506045023 66 312 0.0 0.0 0.00 0.00 0.00 56 1019.0
20260506044521 67 218 0.0 0.0 0.00 0.00 0.00 55 1019.4
20260506044018 67 239 0.0 0.0 0.00 0.00 0.00 55 1019.4
20260506043515 67 266 0.0 0.0 0.00 0.00 0.00 55 1019.4
20260506043013 67 265 0.0 0.0 0.00 0.00 0.00 55 1019.6
20260506042512 66 269 0.0 0.0 0.00 0.00 0.00 55 1019.0
20260506042010 66 270 0.0 0.0 0.00 0.00 0.00 55 1019.1
20260506041508 67 272 0.0 0.0 0.00 0.00 0.00 55 1018.9
20260506041004 67 239 0.0 0.0 0.00 0.00 0.00 55 1018.9
20260506040502 67 241 0.0 2.0 0.00 0.00 0.00 55 1018.9
20260506035958 67 269 0.0 0.0 0.00 0.00 0.00 55 1018.9
20260506035455 67 245 0.0 0.0 0.00 0.00 0.00 54 1018.8
20260506034951 68 269 0.0 0.0 0.00 0.00 0.00 53 1019.1
20260506034449 68 233 0.0 0.0 0.00 0.00 0.00 53 1019.1
20260506033946 68 269 0.0 0.0 0.00 0.00 0.00 53 1019.3
20260506033444 68 265 0.0 0.0 0.00 0.00 0.00 53 1019.3
20260506032940 68 139 0.0 0.0 0.00 0.00 0.00 52 1019.4
20260506032437 68 138 1.0 2.0 0.00 0.00 0.00 52 1019.3
20260506031934 69 138 0.0 0.0 0.00 0.00 0.00 51 1019.4
20260506031431 69 272 0.0 0.0 0.00 0.00 0.00 51 1019.3
20260506030929 69 262 0.0 0.0 0.00 0.00 0.00 51 1019.3
20260506030427 69 271 0.0 0.0 0.00 0.00 0.00 51 1019.1
20260506025923 69 253 0.0 0.0 0.00 0.00 0.00 50 1019.5
20260506025420 69 272 0.0 0.0 0.00 0.00 0.00 50 1019.3
20260506024917 69 271 0.0 0.0 0.00 0.00 0.00 50 1019.4
20260506024414 69 257 0.0 0.0 0.00 0.00 0.00 50 1019.3
20260506023909 69 274 0.0 2.0 0.00 0.00 0.00 50 1019.1
20260506023407 70 226 1.0 2.0 0.00 0.00 0.00 49 1019.3
20260506022903 70 274 0.0 0.0 0.00 0.00 0.00 49 1019.1
20260506022401 70 175 1.0 2.0 0.00 0.00 0.00 48 1019.3
20260506021859 70 260 0.0 0.0 0.00 0.00 0.00 48 1019.3
20260506021355 71 262 0.0 0.0 0.00 0.00 0.00 47 1018.9
20260506020852 71 264 0.0 0.0 0.00 0.00 0.00 47 1019.1
20260506020351 71 242 0.0 0.0 0.00 0.00 0.00 46 1019.1
20260506015847 71 260 0.0 0.0 0.00 0.00 0.00 46 1018.9
20260506015345 71 260 0.0 0.0 0.00 0.00 0.00 46 1018.8
20260506014842 71 244 0.0 0.0 0.00 0.00 0.00 46 1018.7
20260506014338 71 183 2.0 3.0 0.00 0.00 0.00 45 1018.8
20260506013835 71 249 2.0 3.0 0.00 0.00 0.00 45 1018.6
20260506013333 72 260 0.0 0.0 0.00 0.00 0.00 45 1018.8
20260506012829 72 268 0.0 0.0 0.00 0.00 0.00 44 1019.0
20260506012326 72 269 0.0 0.0 0.00 0.00 0.00 44 1019.0
20260506011823 72 227 2.0 2.0 0.00 0.00 0.00 43 1018.8
20260506011320 73 264 0.0 0.0 0.00 0.00 0.00 43 1018.9
20260506010817 73 234 0.0 0.0 0.00 0.00 0.00 43 1018.5
20260506010315 73 227 1.0 2.0 0.00 0.00 0.00 43 1018.7
20260506005812 73 260 0.0 0.0 0.00 0.00 0.00 42 1018.9
20260506005309 73 240 0.0 0.0 0.00 0.00 0.00 42 1019.0
20260506004805 73 258 0.0 0.0 0.00 0.00 0.00 42 1019.0
20260506004303 73 244 0.0 0.0 0.00 0.00 0.00 41 1019.0
20260506003759 74 256 0.0 0.0 0.00 0.00 0.00 41 1019.0
20260506003255 74 228 2.0 2.0 0.00 0.00 0.00 41 1019.0
20260506002751 74 256 1.0 2.0 0.00 0.00 0.00 41 1019.0
20260506002247 74 188 1.0 3.0 0.00 0.00 0.00 41 1018.8
20260506001743 74 256 2.0 2.0 0.00 0.00 0.00 41 1019.1
20260506001241 74 259 0.0 0.0 0.00 0.00 0.00 40 1018.7
20260506000738 75 263 0.0 0.0 0.00 0.00 0.00 41 1018.9
20260506000235 75 253 2.0 2.0 0.00 0.00 0.00 41 1018.9
20260505235732 75 256 0.0 2.0 0.00 0.00 0.00 40 1018.8
20260505235230 75 240 1.0 2.0 0.00 0.00 0.00 39 1018.8
20260505234726 76 239 0.0 0.0 0.00 0.00 0.00 39 1018.7
20260505234224 76 252 3.0 5.0 0.00 0.00 0.00 38 1018.5
20260505233720 76 272 2.0 2.0 0.00 0.00 0.00 39 1018.7
20260505233218 77 200 2.0 3.0 0.00 0.00 0.00 39 1018.6
20260505232715 77 222 3.0 3.0 0.00 0.00 0.00 38 1018.6
20260505232213 77 274 2.0 2.0 0.00 0.00 0.00 38 1018.7
20260505231709 77 270 2.0 2.0 0.00 0.00 0.00 38 1018.6
20260505231208 77 246 3.0 5.0 0.00 0.00 0.00 37 1018.8
20260505230706 77 247 3.0 3.0 0.00 0.00 0.00 37 1018.5
20260505230202 77 243 4.0 5.0 0.00 0.00 0.00 37 1018.5
20260505225659 77 247 3.0 3.0 0.00 0.00 0.00 36 1018.5
20260505225155 78 246 2.0 2.0 0.00 0.00 0.00 37 1018.5
20260505224651 78 248 2.0 2.0 0.00 0.00 0.00 36 1018.5
20260505224149 78 245 4.0 5.0 0.00 0.00 0.00 35 1018.4
20260505223646 78 204 3.0 5.0 0.00 0.00 0.00 34 1018.6
20260505223142 78 164 0.0 2.0 0.00 0.00 0.00 33 1018.6
20260505222632 78 172 2.0 3.0 0.00 0.00 0.00 33 1018.3
20260505222129 78 233 5.0 7.0 0.00 0.00 0.00 33 1018.2
20260505221626 79 248 4.0 7.0 0.00 0.00 0.00 32 1018.2
20260505221123 79 226 3.0 3.0 0.00 0.00 0.00 33 1018.4
20260505220620 79 266 1.0 2.0 0.00 0.00 0.00 32 1018.1
20260505220118 79 116 2.0 3.0 0.00 0.00 0.00 34 1018.3
20260505215615 79 278 0.0 0.0 0.00 0.00 0.00 33 1018.6
20260505215113 79 141 6.0 7.0 0.00 0.00 0.00 33 1018.4
20260505214611 80 268 0.0 0.0 0.00 0.00 0.00 31 1018.6
20260505214108 80 78 2.0 3.0 0.00 0.00 0.00 31 1018.3
20260505213605 80 167 0.0 0.0 0.00 0.00 0.00 32 1018.5
20260505213102 79 240 2.0 3.0 0.00 0.00 0.00 32 1018.9
20260505212558 79 224 3.0 3.0 0.00 0.00 0.00 32 1018.6
20260505212056 80 296 1.0 2.0 0.00 0.00 0.00 32 1018.5
20260505211552 80 272 0.0 0.0 0.00 0.00 0.00 33 1018.5
20260505211049 80 194 3.0 3.0 0.00 0.00 0.00 31 1018.6
20260505210546 80 58 3.0 5.0 0.00 0.00 0.00 32 1018.5
20260505210043 79 274 0.0 2.0 0.00 0.00 0.00 34 1018.6
20260505205541 80 288 3.0 5.0 0.00 0.00 0.00 33 1018.6
20260505205038 80 210 3.0 5.0 0.00 0.00 0.00 34 1018.7
20260505204535 79 198 2.0 3.0 0.00 0.00 0.00 34 1018.8
20260505204033 79 209 2.0 2.0 0.00 0.00 0.00 34 1018.8
20260505203529 79 199 3.0 5.0 0.00 0.00 0.00 36 1019.1
20260505203026 79 179 4.0 7.0 0.00 0.00 0.00 34 1019.0
20260505202522 79 245 3.0 5.0 0.00 0.00 0.00 34 1019.3
20260505202018 79 238 3.0 5.0 0.00 0.00 0.00 34 1018.9
20260505201516 79 178 3.0 3.0 0.00 0.00 0.00 33 1019.0
20260505201013 79 272 1.0 3.0 0.00 0.00 0.00 33 1019.1
20260505200511 79 214 7.0 9.0 0.00 0.00 0.00 34 1019.3
20260505200008 79 172 0.0 2.0 0.00 0.00 0.00 36 1019.4
20260505195504 79 141 3.0 5.0 0.00 0.00 0.00 35 1019.6
20260505195001 79 271 4.0 7.0 0.00 0.00 0.00 35 1019.5
20260505194459 79 135 5.0 7.0 0.00 0.00 0.00 32 1019.8
20260505193958 79 136 3.0 3.0 0.00 0.00 0.00 35 1019.6
20260505193456 79 258 1.0 2.0 0.00 0.00 0.00 35 1019.7
20260505192947 78 127 6.0 7.0 0.00 0.00 0.00 33 1019.7
20260505192446 78 358 2.0 5.0 0.00 0.00 0.00 35 1019.8
20260505191943 78 251 3.0 3.0 0.00 0.00 0.00 36 1019.6
20260505191442 78 235 2.0 3.0 0.00 0.00 0.00 35 1019.7
20260505190938 78 76 3.0 5.0 0.00 0.00 0.00 36 1019.7
20260505190433 78 213 5.0 7.0 0.00 0.00 0.00 36 1019.9
20260505185929 78 157 2.0 3.0 0.00 0.00 0.00 36 1020.1
20260505185427 78 228 3.0 3.0 0.00 0.00 0.00 37 1020.1
20260505184922 78 256 2.0 3.0 0.00 0.00 0.00 38 1020.4
20260505184420 78 287 0.0 0.0 0.00 0.00 0.00 38 1020.2
20260505183916 77 245 0.0 2.0 0.00 0.00 0.00 38 1020.4
20260505183413 76 194 2.0 3.0 0.00 0.00 0.00 40 1020.5
20260505182910 77 243 3.0 3.0 0.00 0.00 0.00 39 1020.5
20260505182407 77 202 0.0 0.0 0.00 0.00 0.00 39 1020.5
20260505181903 77 245 0.0 0.0 0.00 0.00 0.00 40 1020.4
20260505181400 77 153 3.0 5.0 0.00 0.00 0.00 38 1020.8
20260505180857 77 197 5.0 7.0 0.00 0.00 0.00 36 1021.0
20260505180353 77 227 0.0 0.0 0.00 0.00 0.00 38 1020.9